Moriarty, NM

6:09 PM MST on November 17, 2017 (GMT -0700)
Moriarty

Weather History for K0E0 - February, 2013

Change the Weather History Date:

Wednesday, February 13, 2013

  Actual Average (KABQ) Record (KABQ)
Temperature  
Mean Temperature 30 °F -  
Max Temperature 48 °F 55 °F 72 °F (1979)
Min Temperature 12 °F 28 °F 6 °F (1905)
Degree Days  
Heating Degree Days 35    
Moisture  
Dew Point 9 °F    
Average Humidity 42    
Maximum Humidity 76    
Minimum Humidity 22    
Precipitation  
Precipitation 0.00 in - - ()
Sea Level Pressure  
Sea Level Pressure 30.07 in    
Wind  
Wind Speed 8 mph (NW)    
Max Wind Speed 21 mph    
Max Gust Speed 29 mph    
Visibility 10 miles    
Events      
Averages and records for this station are not official NWS values.
T = Trace of Precipitation, MM = Missing Value Source: NWS Daily Summary

Daily Weather History Graph

Daily Weather History Graph

Search for Another Location

Airport or City:

Trip Planner

Search our weather history database for the weather conditions in past years. The results will help you decide how hot, cold, wet, or windy it might be!

Date:

Astronomy

Feb. 13, 2013 Rise Set
Actual Time 6:51 AM MST 5:45 PM MST
Civil Twilight 6:25 AM MST 6:11 PM MST
Nautical Twilight 5:56 AM MST 6:40 PM MST
Astronomical Twilight 5:26 AM MST 7:10 PM MST
Moon 8:33 AM MST (2/13) 9:38 PM MST (2/13)
Length of Visible Light 11h 45m
Length of Day
10h 53m
Waxing Crescent, 14% of the Moon is Illuminated
Feb 13
Waxing Crescent
Feb 17
First Quarter
Feb 25
Full
Mar 4
Last Quarter
Mar 11
New

Hourly Weather History & Observations

Time (MST) Temp. Windchill Dew Point Humidity Pressure Visibility Wind Dir Wind Speed Gust Speed Precip Events Conditions
12:15 AM 24.4 °F 15.6 °F 3.9 °F 41% 30.12 in 10.0 mi NNW 8.1 mph - N/A   Clear
12:35 AM 24.6 °F - 3.7 °F 41% 30.11 in 10.0 mi Calm Calm - N/A   Clear
12:55 AM 25.7 °F 21.5 °F 3.0 °F 38% 30.11 in 10.0 mi South 3.5 mph - N/A   Clear
1:15 AM 25.0 °F 20.7 °F 3.2 °F 39% 30.11 in 10.0 mi ESE 3.5 mph - N/A   Clear
1:35 AM 25.2 °F - 3.6 °F 40% 30.11 in 10.0 mi Calm Calm - N/A   Clear
1:55 AM 21.9 °F - 3.9 °F 46% 30.11 in 10.0 mi Calm Calm - N/A   Clear
2:15 AM 22.6 °F 10.7 °F 5.2 °F 47% 30.10 in 10.0 mi NW 12.7 mph - N/A   Clear
2:35 AM 22.8 °F 18.2 °F 4.8 °F 46% 30.10 in 10.0 mi ENE 3.5 mph - N/A   Clear
2:55 AM 23.9 °F 16.8 °F 4.8 °F 44% 30.10 in 10.0 mi NNW 5.8 mph - N/A   Clear
3:15 AM 21.2 °F 12.6 °F 5.0 °F 50% 30.09 in 10.0 mi NNW 6.9 mph - N/A   Clear
3:35 AM 20.3 °F 13.8 °F 5.0 °F 52% 30.09 in 10.0 mi WNW 4.6 mph - N/A   Clear
3:55 AM 21.2 °F - 5.4 °F 51% 30.09 in 10.0 mi Calm Calm - N/A   Clear
4:15 AM 17.4 °F 12.1 °F 4.1 °F 56% 30.09 in 10.0 mi SSE 3.5 mph - N/A   Clear
4:35 AM 17.4 °F 12.1 °F 7.0 °F 64% 30.09 in 10.0 mi North 3.5 mph - N/A   Clear
4:55 AM 18.1 °F 12.9 °F 7.7 °F 64% 30.09 in 10.0 mi NNW 3.5 mph - N/A   Clear
5:15 AM 14.5 °F 8.8 °F 4.1 °F 63% 30.09 in 10.0 mi NE 3.5 mph - N/A   Clear
5:35 AM 15.8 °F 6.1 °F 8.1 °F 72% 30.09 in 10.0 mi NW 6.9 mph - N/A   Clear
5:55 AM 12.4 °F 3.1 °F 6.1 °F 76% 30.09 in 10.0 mi NW 5.8 mph - N/A   Clear
6:15 AM 15.8 °F - 8.2 °F 72% 30.10 in 10.0 mi Calm Calm - N/A   Clear
6:35 AM 16.3 °F 6.7 °F 8.4 °F 71% 30.10 in 10.0 mi NW 6.9 mph - N/A   Clear
6:55 AM 16.9 °F 6.4 °F 8.6 °F 70% 30.10 in 10.0 mi North 8.1 mph - N/A   Clear
7:15 AM 17.2 °F 6.0 °F 9.3 °F 71% 30.10 in 10.0 mi NNW 9.2 mph - N/A   Clear
7:35 AM 20.5 °F 10.8 °F 10.9 °F 67% 30.10 in 10.0 mi NW 8.1 mph - N/A   Clear
7:55 AM 23.0 °F 15.8 °F 11.3 °F 61% 30.10 in 10.0 mi WNW 5.8 mph - N/A   Clear
8:15 AM 25.7 °F 15.7 °F 11.8 °F 56% 30.10 in 10.0 mi NW 10.4 mph - N/A   Clear
8:35 AM 28.4 °F 19.7 °F 12.4 °F 51% 30.11 in 10.0 mi NNW 9.2 mph - N/A   Clear
8:55 AM 29.5 °F 23.4 °F 11.5 °F 47% 30.10 in 10.0 mi WNW 5.8 mph - N/A   Clear
9:15 AM 31.6 °F 23.7 °F 11.3 °F 43% 30.10 in 10.0 mi WNW 9.2 mph - N/A   Clear
9:35 AM 33.8 °F 25.8 °F 11.5 °F 40% 30.10 in 10.0 mi NW 10.4 mph - N/A   Clear
9:55 AM 36.1 °F 27.3 °F 9.9 °F 34% 30.10 in 10.0 mi NNW 13.8 mph 23.0 mph N/A   Clear
10:15 AM 36.7 °F 26.6 °F 9.3 °F 32% 30.09 in 10.0 mi NNW 18.4 mph 26.5 mph N/A   Clear
10:35 AM 37.8 °F 30.7 °F 9.3 °F 31% 30.09 in 10.0 mi NNW 10.4 mph 20.7 mph N/A   Clear
10:55 AM 38.8 °F 29.7 °F 8.8 °F 29% 30.08 in 10.0 mi NNW 17.3 mph 23.0 mph N/A   Clear
11:15 AM 40.3 °F 31.9 °F 9.5 °F 28% 30.08 in 10.0 mi NNW 16.1 mph 21.9 mph N/A   Clear
11:35 AM 40.6 °F 32.7 °F 8.6 °F 27% 30.08 in 10.0 mi NNW 15.0 mph 26.5 mph N/A   Clear
11:55 AM 42.3 °F 35.5 °F 9.5 °F 26% 30.07 in 10.0 mi NW 12.7 mph 20.7 mph N/A   Clear
12:15 PM 41.9 °F 35.4 °F 9.3 °F 26% 30.05 in 10.0 mi NW 11.5 mph 17.3 mph N/A   Clear
12:35 PM 43.7 °F 35.4 °F 9.1 °F 24% 30.04 in 10.0 mi WNW 19.6 mph 24.2 mph N/A   Clear
12:55 PM 44.6 °F 36.4 °F 9.5 °F 24% 30.04 in 10.0 mi WNW 20.7 mph 25.3 mph N/A   Clear
1:15 PM 44.1 °F 36.2 °F 9.5 °F 24% 30.03 in 10.0 mi NW 18.4 mph 28.8 mph N/A   Clear
1:35 PM 45.3 °F 38.1 °F 9.7 °F 23% 30.02 in 10.0 mi NNW 17.3 mph 25.3 mph N/A   Clear
1:55 PM 45.7 °F 39.5 °F 9.9 °F 23% 30.02 in 10.0 mi NW 13.8 mph 23.0 mph N/A   Clear
2:15 PM 46.4 °F 39.8 °F 10.2 °F 23% 30.01 in 10.0 mi NW 16.1 mph 25.3 mph N/A   Clear
2:35 PM 47.7 °F - 10.8 °F 23% 30.00 in 10.0 mi NW 19.6 mph - N/A   Clear
2:55 PM 48.0 °F - 10.9 °F 22% 30.00 in 10.0 mi WNW 17.3 mph - N/A   Clear
3:15 PM 48.2 °F - 11.3 °F 23% 29.99 in 10.0 mi NW 15.0 mph 21.9 mph N/A   Clear
3:35 PM 47.8 °F - 11.3 °F 23% 30.00 in 10.0 mi NW 17.3 mph 24.2 mph N/A   Clear
3:55 PM 47.3 °F - 11.1 °F 23% 30.00 in 10.0 mi WNW 15.0 mph 20.7 mph N/A   Clear
4:15 PM 47.1 °F - 11.3 °F 24% 30.00 in 10.0 mi WNW 13.8 mph - N/A   Clear
4:35 PM 46.6 °F - 11.3 °F 24% 30.00 in 10.0 mi NW 12.7 mph - N/A   Clear
4:55 PM 45.3 °F 40.1 °F 11.3 °F 25% 30.00 in 10.0 mi NW 10.4 mph - N/A   Clear
5:15 PM 43.5 °F 37.1 °F 11.5 °F 27% 30.01 in 10.0 mi WNW 12.7 mph 18.4 mph N/A   Clear
5:35 PM 40.8 °F 34.5 °F 11.3 °F 30% 30.01 in 10.0 mi WNW 10.4 mph - N/A   Clear
5:55 PM 36.7 °F 32.0 °F 10.8 °F 34% 30.02 in 10.0 mi WNW 5.8 mph - N/A   Clear
6:15 PM 34.0 °F 28.8 °F 10.0 °F 37% 30.02 in 10.0 mi NNW 5.8 mph - N/A   Clear
6:35 PM 31.6 °F 23.7 °F 9.3 °F 39% 30.03 in 10.0 mi NW 9.2 mph - N/A   Clear
6:55 PM 32.0 °F 22.5 °F 11.5 °F 43% 30.04 in 10.0 mi WNW 12.7 mph - N/A   Clear
7:15 PM 32.5 °F 26.2 °F 10.8 °F 40% 30.05 in 10.0 mi NW 6.9 mph - N/A   Clear
7:35 PM 29.1 °F 23.0 °F 10.9 °F 47% 30.05 in 10.0 mi NW 5.8 mph - N/A   Clear
7:55 PM 30.2 °F 21.9 °F 12.2 °F 47% 30.06 in 10.0 mi NNW 9.2 mph - N/A   Clear
8:15 PM 32.9 °F 24.1 °F 13.3 °F 44% 30.07 in 10.0 mi NW 11.5 mph - N/A   Clear
8:35 PM 29.8 °F 26.3 °F 11.8 °F 47% 30.08 in 10.0 mi East 3.5 mph - N/A   Clear
8:55 PM 30.7 °F 22.6 °F 13.5 °F 49% 30.08 in 10.0 mi NW 9.2 mph - N/A   Clear
9:15 PM 32.4 °F 26.0 °F 13.1 °F 45% 30.08 in 10.0 mi NW 6.9 mph - N/A   Clear
9:35 PM 30.7 °F 26.0 °F 12.7 °F 47% 30.08 in 10.0 mi South 4.6 mph - N/A   Clear
9:55 PM 30.2 °F 25.4 °F 12.2 °F 47% 30.08 in 10.0 mi SW 4.6 mph - N/A   Clear
10:15 PM 33.1 °F - 12.6 °F 43% 30.08 in 10.0 mi Calm Calm - N/A   Clear
10:35 PM 32.2 °F 20.0 °F 13.6 °F 46% 30.07 in 10.0 mi WNW 20.7 mph 27.6 mph N/A   Clear
10:55 PM 34.2 °F 23.3 °F 13.1 °F 42% 30.07 in 10.0 mi NW 18.4 mph - N/A   Clear
11:15 PM 32.2 °F 21.8 °F 13.5 °F 46% 30.08 in 10.0 mi WNW 15.0 mph - N/A   Clear
11:35 PM 32.7 °F 22.5 °F 13.8 °F 46% 30.07 in 10.0 mi WNW 15.0 mph - N/A   Clear
11:55 PM 35.6 °F 24.8 °F 14.9 °F 43% 30.07 in 10.0 mi WNW 19.6 mph 26.5 mph N/A   Clear